Time,TemperatureF,DewpointF,PressureIn,WindDirection,WindDirectionDegrees,WindSpeedMPH,WindSpeedGustMPH,Humidity,HourlyPrecipIn,Conditions,Clouds,dailyrainin,SoftwareType,DateUTC
2013-06-18 00:01:00,75.4,67.6,29.69,North,-999,-999.0,-999.0,77,-99.99,,,-99.99,meteohub,2013-06-18 04:01:00,
2013-06-18 00:02:00,75.4,67.6,29.69,North,-999,-999.0,-999.0,77,-99.99,,,-99.99,meteohub,2013-06-18 04:02:00,
2013-06-18 00:03:00,75.4,67.6,29.69,North,-999,-999.0,-999.0,77,-99.99,,,-99.99,meteohub,2013-06-18 04:03:00,
2013-06-18 00:08:00,75.2,67.5,29.69,North,-999,-999.0,-999.0,77,-99.99,,,-99.99,meteohub,2013-06-18 04:08:00,
2013-06-18 00:13:00,75.0,67.6,29.69,North,-999,-999.0,-999.0,78,-99.99,,,-99.99,meteohub,2013-06-18 04:13:00,
2013-06-18 00:18:00,74.8,67.5,29.69,North,-999,-999.0,-999.0,78,-99.99,,,-99.99,meteohub,2013-06-18 04:18:00,
2013-06-18 00:23:00,74.7,67.6,29.69,North,-999,-999.0,-999.0,79,-99.99,,,-99.99,meteohub,2013-06-18 04:23:00,
2013-06-18 00:29:00,74.5,67.5,29.69,North,-999,-999.0,-999.0,79,-99.99,,,-99.99,meteohub,2013-06-18 04:29:00,
2013-06-18 00:34:00,74.5,67.5,29.69,North,-999,-999.0,-999.0,79,-99.99,,,-99.99,meteohub,2013-06-18 04:34:00,
2013-06-18 00:39:00,74.3,67.3,29.69,North,-999,-999.0,-999.0,79,-99.99,,,-99.99,meteohub,2013-06-18 04:39:00,
2013-06-18 00:44:00,74.3,67.3,29.69,North,-999,-999.0,-999.0,79,-99.99,,,-99.99,meteohub,2013-06-18 04:44:00,
2013-06-18 00:49:00,74.1,67.1,29.66,North,-999,-999.0,-999.0,79,-99.99,,,-99.99,meteohub,2013-06-18 04:49:00,
2013-06-18 00:54:00,73.9,67.5,29.66,North,-999,-999.0,-999.0,80,-99.99,,,-99.99,meteohub,2013-06-18 04:54:00,
2013-06-18 00:59:00,73.9,67.1,29.66,North,-999,-999.0,-999.0,79,-99.99,,,-99.99,meteohub,2013-06-18 04:59:00,
2013-06-18 01:04:00,73.6,67.1,29.66,North,-999,-999.0,-999.0,80,-99.99,,,-99.99,meteohub,2013-06-18 05:04:00,
2013-06-18 01:10:00,73.6,67.1,29.66,North,-999,-999.0,-999.0,80,-99.99,,,-99.99,meteohub,2013-06-18 05:10:00,
2013-06-18 01:15:00,73.4,66.9,29.66,North,-999,-999.0,-999.0,80,-99.99,,,-99.99,meteohub,2013-06-18 05:15:00,
2013-06-18 01:20:00,73.2,66.7,29.66,North,-999,-999.0,-999.0,80,-99.99,,,-99.99,meteohub,2013-06-18 05:20:00,
2013-06-18 01:25:00,73.2,67.1,29.66,North,-999,-999.0,-999.0,81,-99.99,,,-99.99,meteohub,2013-06-18 05:25:00,
2013-06-18 01:30:00,73.0,66.9,29.66,North,-999,-999.0,-999.0,81,-99.99,,,-99.99,meteohub,2013-06-18 05:30:00,
2013-06-18 01:35:00,73.0,66.9,29.66,North,-999,-999.0,-999.0,81,-99.99,,,-99.99,meteohub,2013-06-18 05:35:00,
2013-06-18 01:40:00,72.9,66.7,29.66,North,-999,-999.0,-999.0,81,-99.99,,,-99.99,meteohub,2013-06-18 05:40:00,
2013-06-18 01:45:00,72.7,66.6,29.66,North,-999,-999.0,-999.0,81,-99.99,,,-99.99,meteohub,2013-06-18 05:45:00,
2013-06-18 01:50:00,72.5,66.4,29.66,North,-999,-999.0,-999.0,81,-99.99,,,-99.99,meteohub,2013-06-18 05:50:00,
2013-06-18 01:55:00,72.5,66.4,29.66,North,-999,-999.0,-999.0,81,-99.99,,,-99.99,meteohub,2013-06-18 05:55:00,
2013-06-18 02:01:00,72.3,66.6,29.66,North,-999,-999.0,-999.0,82,-99.99,,,-99.99,meteohub,2013-06-18 06:01:00,
2013-06-18 02:06:00,72.1,66.4,29.63,North,-999,-999.0,-999.0,82,-99.99,,,-99.99,meteohub,2013-06-18 06:06:00,
2013-06-18 02:11:00,72.1,66.4,29.63,North,-999,-999.0,-999.0,82,-99.99,,,-99.99,meteohub,2013-06-18 06:11:00,
2013-06-18 02:16:00,72.0,66.6,29.63,North,-999,-999.0,-999.0,83,-99.99,,,-99.99,meteohub,2013-06-18 06:16:00,
2013-06-18 02:21:00,71.8,66.7,29.63,North,-999,-999.0,-999.0,84,-99.99,,,-99.99,meteohub,2013-06-18 06:21:00,
2013-06-18 02:26:00,71.8,66.7,29.63,North,-999,-999.0,-999.0,84,-99.99,,,-99.99,meteohub,2013-06-18 06:26:00,
2013-06-18 02:31:00,71.8,66.7,29.63,North,-999,-999.0,-999.0,84,-99.99,,,-99.99,meteohub,2013-06-18 06:31:00,
2013-06-18 02:36:00,71.6,66.6,29.63,North,-999,-999.0,-999.0,84,-99.99,,,-99.99,meteohub,2013-06-18 06:36:00,
2013-06-18 02:41:00,71.4,66.4,29.63,North,-999,-999.0,-999.0,84,-99.99,,,-99.99,meteohub,2013-06-18 06:41:00,
2013-06-18 02:46:00,71.4,66.4,29.63,North,-999,-999.0,-999.0,84,-99.99,,,-99.99,meteohub,2013-06-18 06:46:00,
2013-06-18 02:52:00,71.4,66.4,29.63,North,-999,-999.0,-999.0,84,-99.99,,,-99.99,meteohub,2013-06-18 06:52:00,
2013-06-18 02:57:00,71.2,66.6,29.63,North,-999,-999.0,-999.0,85,-99.99,,,-99.99,meteohub,2013-06-18 06:57:00,
2013-06-18 03:02:00,71.2,66.2,29.63,North,-999,-999.0,-999.0,84,-99.99,,,-99.99,meteohub,2013-06-18 07:02:00,
2013-06-18 03:07:00,71.2,66.2,29.63,North,-999,-999.0,-999.0,84,-99.99,,,-99.99,meteohub,2013-06-18 07:07:00,
2013-06-18 03:12:00,71.1,66.0,29.63,North,-999,-999.0,-999.0,84,-99.99,,,-99.99,meteohub,2013-06-18 07:12:00,
2013-06-18 03:17:00,70.9,65.8,29.63,North,-999,-999.0,-999.0,84,-99.99,,,-99.99,meteohub,2013-06-18 07:17:00,
2013-06-18 03:22:00,70.9,65.8,29.63,North,-999,-999.0,-999.0,84,-99.99,,,-99.99,meteohub,2013-06-18 07:22:00,
2013-06-18 03:27:00,70.9,65.8,29.63,North,-999,-999.0,-999.0,84,-99.99,,,-99.99,meteohub,2013-06-18 07:27:00,
2013-06-18 03:32:00,70.7,66.0,29.63,North,-999,-999.0,-999.0,85,-99.99,,,-99.99,meteohub,2013-06-18 07:32:00,
2013-06-18 03:37:00,70.7,66.0,29.63,North,-999,-999.0,-999.0,85,-99.99,,,-99.99,meteohub,2013-06-18 07:37:00,
2013-06-18 03:42:00,70.7,66.0,29.63,North,-999,-999.0,-999.0,85,-99.99,,,-99.99,meteohub,2013-06-18 07:42:00,
2013-06-18 03:47:00,70.5,66.2,29.63,North,-999,-999.0,-999.0,86,-99.99,,,-99.99,meteohub,2013-06-18 07:47:00,
2013-06-18 03:52:00,70.5,65.8,29.60,North,-999,-999.0,-999.0,85,-99.99,,,-99.99,meteohub,2013-06-18 07:52:00,
2013-06-18 03:57:00,70.5,65.8,29.60,North,-999,-999.0,-999.0,85,-99.99,,,-99.99,meteohub,2013-06-18 07:57:00,
2013-06-18 04:02:00,70.5,65.8,29.60,North,-999,-999.0,-999.0,85,-99.99,,,-99.99,meteohub,2013-06-18 08:02:00,
2013-06-18 04:07:00,70.3,66.0,29.60,North,-999,-999.0,-999.0,86,-99.99,,,-99.99,meteohub,2013-06-18 08:07:00,
2013-06-18 04:12:00,70.3,66.0,29.60,North,-999,-999.0,-999.0,86,-99.99,,,-99.99,meteohub,2013-06-18 08:12:00,
2013-06-18 04:17:00,70.3,66.0,29.60,North,-999,-999.0,-999.0,86,-99.99,,,-99.99,meteohub,2013-06-18 08:17:00,
2013-06-18 04:22:00,70.3,66.0,29.60,North,-999,-999.0,-999.0,86,-99.99,,,-99.99,meteohub,2013-06-18 08:22:00,
2013-06-18 04:27:00,70.3,66.0,29.60,North,-999,-999.0,-999.0,86,-99.99,,,-99.99,meteohub,2013-06-18 08:27:00,
2013-06-18 04:32:00,70.3,66.0,29.60,North,-999,-999.0,-999.0,86,-99.99,,,-99.99,meteohub,2013-06-18 08:32:00,
2013-06-18 04:37:00,70.3,66.0,29.60,North,-999,-999.0,-999.0,86,-99.99,,,-99.99,meteohub,2013-06-18 08:37:00,
2013-06-18 04:42:00,70.3,66.0,29.60,North,-999,-999.0,-999.0,86,-99.99,,,-99.99,meteohub,2013-06-18 08:42:00,
2013-06-18 04:47:00,70.3,66.2,29.60,North,-999,-999.0,-999.0,87,-99.99,,,-99.99,meteohub,2013-06-18 08:47:00,
2013-06-18 04:52:00,70.3,66.2,29.60,North,-999,-999.0,-999.0,87,-99.99,,,-99.99,meteohub,2013-06-18 08:52:00,
2013-06-18 04:57:00,70.3,66.2,29.60,North,-999,-999.0,-999.0,87,-99.99,,,-99.99,meteohub,2013-06-18 08:57:00,
2013-06-18 05:02:00,70.3,66.2,29.60,North,-999,-999.0,-999.0,87,-99.99,,,-99.99,meteohub,2013-06-18 09:02:00,
2013-06-18 05:07:00,70.5,66.7,29.60,North,-999,-999.0,-999.0,88,-99.99,,,-99.99,meteohub,2013-06-18 09:07:00,
2013-06-18 05:12:00,70.5,66.7,29.60,North,-999,-999.0,-999.0,88,-99.99,,,-99.99,meteohub,2013-06-18 09:12:00,
2013-06-18 05:17:00,70.5,66.7,29.60,North,-999,-999.0,-999.0,88,-99.99,,,-99.99,meteohub,2013-06-18 09:17:00,
2013-06-18 05:22:00,70.7,66.9,29.63,North,-999,-999.0,-999.0,88,-99.99,,,-99.99,meteohub,2013-06-18 09:22:00,
2013-06-18 05:27:00,70.7,66.9,29.63,North,-999,-999.0,-999.0,88,-99.99,,,-99.99,meteohub,2013-06-18 09:27:00,
2013-06-18 05:32:00,70.9,67.1,29.63,North,-999,-999.0,-999.0,88,-99.99,,,-99.99,meteohub,2013-06-18 09:32:00,
2013-06-18 05:37:00,70.9,67.1,29.63,North,-999,-999.0,-999.0,88,-99.99,,,-99.99,meteohub,2013-06-18 09:37:00,
2013-06-18 05:42:00,70.9,67.1,29.63,North,-999,-999.0,-999.0,88,-99.99,,,-99.99,meteohub,2013-06-18 09:42:00,
2013-06-18 05:47:00,70.9,67.5,29.63,North,-999,-999.0,-999.0,89,-99.99,,,-99.99,meteohub,2013-06-18 09:47:00,
2013-06-18 05:52:00,71.1,67.3,29.63,North,-999,-999.0,-999.0,88,-99.99,,,-99.99,meteohub,2013-06-18 09:52:00,
2013-06-18 05:57:00,71.1,67.3,29.63,North,-999,-999.0,-999.0,88,-99.99,,,-99.99,meteohub,2013-06-18 09:57:00,
2013-06-18 06:02:00,71.1,67.3,29.63,North,-999,-999.0,-999.0,88,-99.99,,,-99.99,meteohub,2013-06-18 10:02:00,
2013-06-18 06:07:00,71.1,67.3,29.63,North,-999,-999.0,-999.0,88,-99.99,,,-99.99,meteohub,2013-06-18 10:07:00,
2013-06-18 06:12:00,71.1,67.3,29.63,North,-999,-999.0,-999.0,88,-99.99,,,-99.99,meteohub,2013-06-18 10:12:00,
2013-06-18 06:17:00,71.1,67.3,29.63,North,-999,-999.0,-999.0,88,-99.99,,,-99.99,meteohub,2013-06-18 10:17:00,
2013-06-18 06:22:00,71.2,67.5,29.63,North,-999,-999.0,-999.0,88,-99.99,,,-99.99,meteohub,2013-06-18 10:22:00,
2013-06-18 06:27:00,71.2,67.5,29.63,North,-999,-999.0,-999.0,88,-99.99,,,-99.99,meteohub,2013-06-18 10:27:00,
2013-06-18 06:32:00,71.2,67.5,29.63,North,-999,-999.0,-999.0,88,-99.99,,,-99.99,meteohub,2013-06-18 10:32:00,
2013-06-18 06:37:00,71.2,67.5,29.63,North,-999,-999.0,-999.0,88,-99.99,,,-99.99,meteohub,2013-06-18 10:37:00,
2013-06-18 06:42:00,71.4,67.6,29.63,North,-999,-999.0,-999.0,88,-99.99,,,-99.99,meteohub,2013-06-18 10:42:00,
2013-06-18 06:47:00,71.4,68.0,29.63,North,-999,-999.0,-999.0,89,-99.99,,,-99.99,meteohub,2013-06-18 10:47:00,
2013-06-18 06:52:00,71.6,67.8,29.63,North,-999,-999.0,-999.0,88,-99.99,,,-99.99,meteohub,2013-06-18 10:52:00,
2013-06-18 06:57:00,71.6,67.8,29.63,North,-999,-999.0,-999.0,88,-99.99,,,-99.99,meteohub,2013-06-18 10:57:00,
2013-06-18 07:02:00,71.6,67.8,29.63,North,-999,-999.0,-999.0,88,-99.99,,,-99.99,meteohub,2013-06-18 11:02:00,
2013-06-18 07:07:00,71.8,68.0,29.63,North,-999,-999.0,-999.0,88,-99.99,,,-99.99,meteohub,2013-06-18 11:07:00,
2013-06-18 07:12:00,71.8,68.0,29.63,North,-999,-999.0,-999.0,88,-99.99,,,-99.99,meteohub,2013-06-18 11:12:00,
2013-06-18 07:17:00,71.8,68.0,29.63,North,-999,-999.0,-999.0,88,-99.99,,,-99.99,meteohub,2013-06-18 11:17:00,
2013-06-18 07:22:00,71.8,67.6,29.63,North,-999,-999.0,-999.0,87,-99.99,,,-99.99,meteohub,2013-06-18 11:22:00,
2013-06-18 07:27:00,72.0,67.8,29.63,North,-999,-999.0,-999.0,87,-99.99,,,-99.99,meteohub,2013-06-18 11:27:00,
2013-06-18 07:32:00,72.0,68.2,29.63,North,-999,-999.0,-999.0,88,-99.99,,,-99.99,meteohub,2013-06-18 11:32:00,
2013-06-18 07:37:00,72.0,68.2,29.63,North,-999,-999.0,-999.0,88,-99.99,,,-99.99,meteohub,2013-06-18 11:37:00,
2013-06-18 07:42:00,72.1,68.4,29.63,North,-999,-999.0,-999.0,88,-99.99,,,-99.99,meteohub,2013-06-18 11:42:00,
2013-06-18 07:47:00,72.1,68.4,29.63,North,-999,-999.0,-999.0,88,-99.99,,,-99.99,meteohub,2013-06-18 11:47:00,
2013-06-18 07:52:00,72.3,68.2,29.63,North,-999,-999.0,-999.0,87,-99.99,,,-99.99,meteohub,2013-06-18 11:52:00,
2013-06-18 07:57:00,72.3,68.2,29.63,North,-999,-999.0,-999.0,87,-99.99,,,-99.99,meteohub,2013-06-18 11:57:00,
2013-06-18 08:02:00,72.5,68.4,29.63,North,-999,-999.0,-999.0,87,-99.99,,,-99.99,meteohub,2013-06-18 12:02:00,
2013-06-18 08:07:00,72.5,68.4,29.63,North,-999,-999.0,-999.0,87,-99.99,,,-99.99,meteohub,2013-06-18 12:07:00,
2013-06-18 08:12:00,72.7,68.5,29.63,North,-999,-999.0,-999.0,87,-99.99,,,-99.99,meteohub,2013-06-18 12:12:00,
2013-06-18 08:17:00,72.7,68.5,29.63,North,-999,-999.0,-999.0,87,-99.99,,,-99.99,meteohub,2013-06-18 12:17:00,
2013-06-18 08:22:00,72.7,68.5,29.63,North,-999,-999.0,-999.0,87,-99.99,,,-99.99,meteohub,2013-06-18 12:22:00,
2013-06-18 08:27:00,72.7,68.5,29.63,North,-999,-999.0,-999.0,87,-99.99,,,-99.99,meteohub,2013-06-18 12:27:00,
2013-06-18 08:32:00,72.9,68.7,29.63,North,-999,-999.0,-999.0,87,-99.99,,,-99.99,meteohub,2013-06-18 12:32:00,
2013-06-18 08:37:00,73.0,68.5,29.63,North,-999,-999.0,-999.0,86,-99.99,,,-99.99,meteohub,2013-06-18 12:37:00,
2013-06-18 08:42:00,73.2,68.7,29.63,North,-999,-999.0,-999.0,86,-99.99,,,-99.99,meteohub,2013-06-18 12:42:00,
2013-06-18 08:47:00,73.4,68.9,29.63,North,-999,-999.0,-999.0,86,-99.99,,,-99.99,meteohub,2013-06-18 12:47:00,
2013-06-18 08:52:00,73.6,68.7,29.63,North,-999,-999.0,-999.0,85,-99.99,,,-99.99,meteohub,2013-06-18 12:52:00,
2013-06-18 08:57:00,73.6,68.4,29.63,North,-999,-999.0,-999.0,84,-99.99,,,-99.99,meteohub,2013-06-18 12:57:00,
2013-06-18 09:02:00,73.8,68.5,29.63,North,-999,-999.0,-999.0,84,-99.99,,,-99.99,meteohub,2013-06-18 13:02:00,
2013-06-18 09:07:00,73.8,68.5,29.63,North,-999,-999.0,-999.0,84,-99.99,,,-99.99,meteohub,2013-06-18 13:07:00,
2013-06-18 09:12:00,73.9,68.7,29.63,North,-999,-999.0,-999.0,84,-99.99,,,-99.99,meteohub,2013-06-18 13:12:00,
2013-06-18 09:17:00,74.1,68.5,29.63,North,-999,-999.0,-999.0,83,-99.99,,,-99.99,meteohub,2013-06-18 13:17:00,
2013-06-18 09:22:00,74.1,68.5,29.63,North,-999,-999.0,-999.0,83,-99.99,,,-99.99,meteohub,2013-06-18 13:22:00,
2013-06-18 09:27:00,74.3,68.7,29.63,North,-999,-999.0,-999.0,83,-99.99,,,-99.99,meteohub,2013-06-18 13:27:00,
2013-06-18 09:32:00,74.7,68.7,29.63,North,-999,-999.0,-999.0,82,-99.99,,,-99.99,meteohub,2013-06-18 13:32:00,
2013-06-18 09:37:00,74.8,68.9,29.63,North,-999,-999.0,-999.0,82,-99.99,,,-99.99,meteohub,2013-06-18 13:37:00,
2013-06-18 09:42:00,75.0,68.7,29.63,North,-999,-999.0,-999.0,81,-99.99,,,-99.99,meteohub,2013-06-18 13:42:00,
2013-06-18 09:47:00,75.2,68.5,29.63,North,-999,-999.0,-999.0,80,-99.99,,,-99.99,meteohub,2013-06-18 13:47:00,
2013-06-18 09:52:00,75.2,68.2,29.63,North,-999,-999.0,-999.0,79,-99.99,,,-99.99,meteohub,2013-06-18 13:52:00,
2013-06-18 09:57:00,75.0,68.4,29.63,North,-999,-999.0,-999.0,80,-99.99,,,-99.99,meteohub,2013-06-18 13:57:00,
2013-06-18 10:02:00,75.0,68.0,29.63,North,-999,-999.0,-999.0,79,-99.99,,,-99.99,meteohub,2013-06-18 14:02:00,
2013-06-18 10:07:00,74.8,67.8,29.63,North,-999,-999.0,-999.0,79,-99.99,,,-99.99,meteohub,2013-06-18 14:07:00,
2013-06-18 10:12:00,74.8,67.8,29.63,North,-999,-999.0,-999.0,79,-99.99,,,-99.99,meteohub,2013-06-18 14:12:00,
2013-06-18 10:17:00,74.8,67.8,29.63,North,-999,-999.0,-999.0,79,-99.99,,,-99.99,meteohub,2013-06-18 14:17:00,
2013-06-18 10:22:00,75.0,68.4,29.63,North,-999,-999.0,-999.0,80,-99.99,,,-99.99,meteohub,2013-06-18 14:22:00,
2013-06-18 10:27:00,75.0,68.4,29.63,North,-999,-999.0,-999.0,80,-99.99,,,-99.99,meteohub,2013-06-18 14:27:00,
2013-06-18 10:32:00,75.0,68.0,29.63,North,-999,-999.0,-999.0,79,-99.99,,,-99.99,meteohub,2013-06-18 14:32:00,
2013-06-18 10:37:00,75.0,68.0,29.63,North,-999,-999.0,-999.0,79,-99.99,,,-99.99,meteohub,2013-06-18 14:37:00,
2013-06-18 10:42:00,75.0,68.0,29.63,North,-999,-999.0,-999.0,79,-99.99,,,-99.99,meteohub,2013-06-18 14:42:00,
2013-06-18 10:47:00,75.0,68.4,29.63,North,-999,-999.0,-999.0,80,-99.99,,,-99.99,meteohub,2013-06-18 14:47:00,
2013-06-18 10:52:00,75.2,68.2,29.63,North,-999,-999.0,-999.0,79,-99.99,,,-99.99,meteohub,2013-06-18 14:52:00,
2013-06-18 10:57:00,75.2,68.2,29.63,North,-999,-999.0,-999.0,79,-99.99,,,-99.99,meteohub,2013-06-18 14:57:00,
2013-06-18 11:02:00,75.2,67.8,29.63,North,-999,-999.0,-999.0,78,-99.99,,,-99.99,meteohub,2013-06-18 15:02:00,
2013-06-18 11:07:00,75.2,68.2,29.63,North,-999,-999.0,-999.0,79,-99.99,,,-99.99,meteohub,2013-06-18 15:07:00,
2013-06-18 11:12:00,75.2,68.2,29.63,North,-999,-999.0,-999.0,79,-99.99,,,-99.99,meteohub,2013-06-18 15:12:00,
2013-06-18 11:17:00,75.2,68.2,29.63,North,-999,-999.0,-999.0,79,-99.99,,,-99.99,meteohub,2013-06-18 15:17:00,
2013-06-18 11:22:00,75.4,68.0,29.63,North,-999,-999.0,-999.0,78,-99.99,,,-99.99,meteohub,2013-06-18 15:22:00,
2013-06-18 11:27:00,75.2,67.8,29.63,North,-999,-999.0,-999.0,78,-99.99,,,-99.99,meteohub,2013-06-18 15:27:00,
2013-06-18 11:32:00,75.2,67.8,29.63,North,-999,-999.0,-999.0,78,-99.99,,,-99.99,meteohub,2013-06-18 15:32:00,
2013-06-18 11:37:00,75.2,67.8,29.66,North,-999,-999.0,-999.0,78,-99.99,,,-99.99,meteohub,2013-06-18 15:37:00,
2013-06-18 11:42:00,75.2,68.2,29.66,North,-999,-999.0,-999.0,79,-99.99,,,-99.99,meteohub,2013-06-18 15:42:00,
2013-06-18 11:47:00,75.2,68.2,29.66,North,-999,-999.0,-999.0,79,-99.99,,,-99.99,meteohub,2013-06-18 15:47:00,
2013-06-18 11:52:00,75.0,68.0,29.63,North,-999,-999.0,-999.0,79,-99.99,,,-99.99,meteohub,2013-06-18 15:52:00,
2013-06-18 11:57:00,75.0,68.0,29.63,North,-999,-999.0,-999.0,79,-99.99,,,-99.99,meteohub,2013-06-18 15:57:00,
2013-06-18 12:02:00,74.8,67.8,29.63,North,-999,-999.0,-999.0,79,-99.99,,,-99.99,meteohub,2013-06-18 16:02:00,
2013-06-18 12:07:00,75.2,67.8,29.63,North,-999,-999.0,-999.0,78,-99.99,,,-99.99,meteohub,2013-06-18 16:07:00,
2013-06-18 12:12:00,75.4,68.0,29.63,North,-999,-999.0,-999.0,78,-99.99,,,-99.99,meteohub,2013-06-18 16:12:00,
2013-06-18 12:17:00,75.4,68.0,29.63,North,-999,-999.0,-999.0,78,-99.99,,,-99.99,meteohub,2013-06-18 16:17:00,
2013-06-18 12:22:00,75.4,68.0,29.63,North,-999,-999.0,-999.0,78,-99.99,,,-99.99,meteohub,2013-06-18 16:22:00,
2013-06-18 12:27:00,75.6,68.2,29.63,North,-999,-999.0,-999.0,78,-99.99,,,-99.99,meteohub,2013-06-18 16:27:00,
2013-06-18 12:32:00,75.9,68.5,29.63,North,-999,-999.0,-999.0,78,-99.99,,,-99.99,meteohub,2013-06-18 16:32:00,
2013-06-18 12:37:00,76.6,69.3,29.60,North,-999,-999.0,-999.0,78,-99.99,,,-99.99,meteohub,2013-06-18 16:37:00,
2013-06-18 12:42:00,77.5,69.8,29.60,North,-999,-999.0,-999.0,77,-99.99,,,-99.99,meteohub,2013-06-18 16:42:00,
2013-06-18 12:47:00,77.5,69.4,29.60,North,-999,-999.0,-999.0,76,-99.99,,,-99.99,meteohub,2013-06-18 16:47:00,
2013-06-18 12:52:00,77.5,68.9,29.60,North,-999,-999.0,-999.0,75,-99.99,,,-99.99,meteohub,2013-06-18 16:52:00,
2013-06-18 12:57:00,78.6,70.0,29.60,North,-999,-999.0,-999.0,75,-99.99,,,-99.99,meteohub,2013-06-18 16:57:00,
2013-06-18 13:02:00,79.0,69.3,29.60,North,-999,-999.0,-999.0,72,-99.99,,,-99.99,meteohub,2013-06-18 17:02:00,
2013-06-18 13:07:00,78.6,68.9,29.60,North,-999,-999.0,-999.0,72,-99.99,,,-99.99,meteohub,2013-06-18 17:07:00,
2013-06-18 13:12:00,78.3,68.0,29.60,North,-999,-999.0,-999.0,71,-99.99,,,-99.99,meteohub,2013-06-18 17:12:00,
2013-06-18 13:17:00,78.4,67.8,29.60,North,-999,-999.0,-999.0,70,-99.99,,,-99.99,meteohub,2013-06-18 17:17:00,
2013-06-18 13:22:00,79.0,68.4,29.60,North,-999,-999.0,-999.0,70,-99.99,,,-99.99,meteohub,2013-06-18 17:22:00,
2013-06-18 13:27:00,79.0,68.4,29.60,North,-999,-999.0,-999.0,70,-99.99,,,-99.99,meteohub,2013-06-18 17:27:00,
2013-06-18 13:32:00,79.0,68.4,29.60,North,-999,-999.0,-999.0,70,-99.99,,,-99.99,meteohub,2013-06-18 17:32:00,
2013-06-18 13:37:00,78.8,67.8,29.60,North,-999,-999.0,-999.0,69,-99.99,,,-99.99,meteohub,2013-06-18 17:37:00,
2013-06-18 13:42:00,78.4,67.8,29.60,North,-999,-999.0,-999.0,70,-99.99,,,-99.99,meteohub,2013-06-18 17:42:00,
2013-06-18 13:47:00,78.4,67.5,29.60,North,-999,-999.0,-999.0,69,-99.99,,,-99.99,meteohub,2013-06-18 17:47:00,
2013-06-18 13:52:00,78.6,68.0,29.60,North,-999,-999.0,-999.0,70,-99.99,,,-99.99,meteohub,2013-06-18 17:52:00,
2013-06-18 13:57:00,79.3,68.7,29.60,North,-999,-999.0,-999.0,70,-99.99,,,-99.99,meteohub,2013-06-18 17:57:00,
2013-06-18 14:02:00,79.5,68.5,29.60,North,-999,-999.0,-999.0,69,-99.99,,,-99.99,meteohub,2013-06-18 18:02:00,
2013-06-18 14:07:00,79.5,68.5,29.60,North,-999,-999.0,-999.0,69,-99.99,,,-99.99,meteohub,2013-06-18 18:07:00,
2013-06-18 14:12:00,79.5,68.5,29.60,North,-999,-999.0,-999.0,69,-99.99,,,-99.99,meteohub,2013-06-18 18:12:00,
2013-06-18 14:17:00,79.7,68.5,29.60,North,-999,-999.0,-999.0,69,-99.99,,,-99.99,meteohub,2013-06-18 18:17:00,
2013-06-18 14:22:00,79.5,68.0,29.57,North,-999,-999.0,-999.0,68,-99.99,,,-99.99,meteohub,2013-06-18 18:22:00,
2013-06-18 14:27:00,79.7,68.2,29.57,North,-999,-999.0,-999.0,68,-99.99,,,-99.99,meteohub,2013-06-18 18:27:00,
2013-06-18 14:32:00,79.5,68.5,29.57,North,-999,-999.0,-999.0,69,-99.99,,,-99.99,meteohub,2013-06-18 18:32:00,
2013-06-18 14:37:00,79.9,68.7,29.57,North,-999,-999.0,-999.0,69,-99.99,,,-99.99,meteohub,2013-06-18 18:37:00,
2013-06-18 14:42:00,81.3,70.2,29.57,North,-999,-999.0,-999.0,69,-99.99,,,-99.99,meteohub,2013-06-18 18:42:00,
2013-06-18 14:47:00,81.9,70.7,29.57,North,-999,-999.0,-999.0,69,-99.99,,,-99.99,meteohub,2013-06-18 18:47:00,
2013-06-18 14:52:00,81.5,69.1,29.57,North,-999,-999.0,-999.0,66,-99.99,,,-99.99,meteohub,2013-06-18 18:52:00,
2013-06-18 14:57:00,81.7,68.7,29.57,North,-999,-999.0,-999.0,65,-99.99,,,-99.99,meteohub,2013-06-18 18:57:00,
2013-06-18 15:02:00,82.4,70.0,29.57,North,-999,-999.0,-999.0,66,-99.99,,,-99.99,meteohub,2013-06-18 19:02:00,
2013-06-18 15:07:00,82.6,70.0,29.57,North,-999,-999.0,-999.0,66,-99.99,,,-99.99,meteohub,2013-06-18 19:07:00,
2013-06-18 15:12:00,81.9,68.9,29.57,North,-999,-999.0,-999.0,65,-99.99,,,-99.99,meteohub,2013-06-18 19:12:00,
2013-06-18 15:17:00,81.9,68.9,29.57,North,-999,-999.0,-999.0,65,-99.99,,,-99.99,meteohub,2013-06-18 19:17:00,
2013-06-18 15:22:00,82.0,69.1,29.54,North,-999,-999.0,-999.0,65,-99.99,,,-99.99,meteohub,2013-06-18 19:22:00,
2013-06-18 15:27:00,82.2,69.3,29.54,North,-999,-999.0,-999.0,65,-99.99,,,-99.99,meteohub,2013-06-18 19:27:00,
2013-06-18 15:32:00,83.1,70.2,29.54,North,-999,-999.0,-999.0,65,-99.99,,,-99.99,meteohub,2013-06-18 19:32:00,
2013-06-18 15:37:00,83.1,70.2,29.54,North,-999,-999.0,-999.0,65,-99.99,,,-99.99,meteohub,2013-06-18 19:37:00,
2013-06-18 15:42:00,83.5,70.5,29.54,North,-999,-999.0,-999.0,65,-99.99,,,-99.99,meteohub,2013-06-18 19:42:00,
2013-06-18 15:47:00,83.3,69.4,29.54,North,-999,-999.0,-999.0,63,-99.99,,,-99.99,meteohub,2013-06-18 19:47:00,
2013-06-18 15:52:00,82.9,69.1,29.54,North,-999,-999.0,-999.0,63,-99.99,,,-99.99,meteohub,2013-06-18 19:52:00,
2013-06-18 15:57:00,82.8,68.9,29.54,North,-999,-999.0,-999.0,63,-99.99,,,-99.99,meteohub,2013-06-18 19:57:00,
2013-06-18 16:02:00,82.8,69.3,29.54,North,-999,-999.0,-999.0,64,-99.99,,,-99.99,meteohub,2013-06-18 20:02:00,
2013-06-18 16:07:00,82.8,68.9,29.54,North,-999,-999.0,-999.0,63,-99.99,,,-99.99,meteohub,2013-06-18 20:07:00,
2013-06-18 16:12:00,83.1,69.3,29.54,North,-999,-999.0,-999.0,63,-99.99,,,-99.99,meteohub,2013-06-18 20:12:00,
2013-06-18 16:17:00,82.9,69.1,29.54,North,-999,-999.0,-999.0,63,-99.99,,,-99.99,meteohub,2013-06-18 20:17:00,
2013-06-18 16:22:00,83.3,70.3,29.54,North,-999,-999.0,-999.0,65,-99.99,,,-99.99,meteohub,2013-06-18 20:22:00,
2013-06-18 16:27:00,83.8,70.3,29.54,North,-999,-999.0,-999.0,64,-99.99,,,-99.99,meteohub,2013-06-18 20:27:00,
2013-06-18 16:32:00,84.0,70.5,29.54,North,-999,-999.0,-999.0,64,-99.99,,,-99.99,meteohub,2013-06-18 20:32:00,
2013-06-18 16:37:00,84.0,70.0,29.54,North,-999,-999.0,-999.0,63,-99.99,,,-99.99,meteohub,2013-06-18 20:37:00,
2013-06-18 16:43:00,83.3,69.4,29.54,North,-999,-999.0,-999.0,63,-99.99,,,-99.99,meteohub,2013-06-18 20:43:00,
2013-06-18 16:48:00,82.9,69.1,29.54,North,-999,-999.0,-999.0,63,-99.99,,,-99.99,meteohub,2013-06-18 20:48:00,
2013-06-18 16:53:00,82.4,68.0,29.54,North,-999,-999.0,-999.0,62,-99.99,,,-99.99,meteohub,2013-06-18 20:53:00,
2013-06-18 16:58:00,82.8,68.9,29.54,North,-999,-999.0,-999.0,63,-99.99,,,-99.99,meteohub,2013-06-18 20:58:00,
2013-06-18 17:03:00,82.8,68.9,29.54,North,-999,-999.0,-999.0,63,-99.99,,,-99.99,meteohub,2013-06-18 21:03:00,
2013-06-18 17:08:00,82.8,68.9,29.51,North,-999,-999.0,-999.0,63,-99.99,,,-99.99,meteohub,2013-06-18 21:08:00,
2013-06-18 17:13:00,82.8,68.9,29.51,North,-999,-999.0,-999.0,63,-99.99,,,-99.99,meteohub,2013-06-18 21:13:00,
2013-06-18 17:18:00,82.9,69.1,29.51,North,-999,-999.0,-999.0,63,-99.99,,,-99.99,meteohub,2013-06-18 21:18:00,
2013-06-18 17:24:00,83.1,69.3,29.51,North,-999,-999.0,-999.0,63,-99.99,,,-99.99,meteohub,2013-06-18 21:24:00,
2013-06-18 17:29:00,82.9,69.1,29.51,North,-999,-999.0,-999.0,63,-99.99,,,-99.99,meteohub,2013-06-18 21:29:00,
2013-06-18 17:34:00,82.9,68.5,29.51,North,-999,-999.0,-999.0,62,-99.99,,,-99.99,meteohub,2013-06-18 21:34:00,
2013-06-18 17:39:00,82.8,68.9,29.51,North,-999,-999.0,-999.0,63,-99.99,,,-99.99,meteohub,2013-06-18 21:39:00,
2013-06-18 17:44:00,82.6,68.7,29.51,North,-999,-999.0,-999.0,63,-99.99,,,-99.99,meteohub,2013-06-18 21:44:00,
2013-06-18 17:49:00,82.8,69.3,29.51,North,-999,-999.0,-999.0,64,-99.99,,,-99.99,meteohub,2013-06-18 21:49:00,
2013-06-18 17:54:00,82.8,68.9,29.51,North,-999,-999.0,-999.0,63,-99.99,,,-99.99,meteohub,2013-06-18 21:54:00,
2013-06-18 17:59:00,82.4,67.1,29.51,North,-999,-999.0,-999.0,60,-99.99,,,-99.99,meteohub,2013-06-18 21:59:00,
2013-06-18 18:05:00,82.2,66.9,29.51,North,-999,-999.0,-999.0,60,-99.99,,,-99.99,meteohub,2013-06-18 22:05:00,
2013-06-18 18:10:00,82.0,66.4,29.51,North,-999,-999.0,-999.0,59,-99.99,,,-99.99,meteohub,2013-06-18 22:10:00,
2013-06-18 18:15:00,81.9,66.6,29.51,North,-999,-999.0,-999.0,60,-99.99,,,-99.99,meteohub,2013-06-18 22:15:00,
2013-06-18 18:20:00,81.9,66.6,29.51,North,-999,-999.0,-999.0,60,-99.99,,,-99.99,meteohub,2013-06-18 22:20:00,
2013-06-18 18:25:00,81.9,66.6,29.51,North,-999,-999.0,-999.0,60,-99.99,,,-99.99,meteohub,2013-06-18 22:25:00,
2013-06-18 18:30:00,81.7,66.9,29.51,North,-999,-999.0,-999.0,61,-99.99,,,-99.99,meteohub,2013-06-18 22:30:00,
2013-06-18 18:35:00,81.3,66.6,29.51,North,-999,-999.0,-999.0,61,-99.99,,,-99.99,meteohub,2013-06-18 22:35:00,
2013-06-18 18:40:00,80.4,67.6,29.51,North,-999,-999.0,-999.0,65,-99.99,,,-99.99,meteohub,2013-06-18 22:40:00,
2013-06-18 18:45:00,78.3,66.7,29.51,North,-999,-999.0,-999.0,68,-99.99,,,-99.99,meteohub,2013-06-18 22:45:00,
2013-06-18 18:50:00,76.8,66.2,29.54,North,-999,-999.0,-999.0,70,-99.99,,,-99.99,meteohub,2013-06-18 22:50:00,
2013-06-18 18:56:00,75.7,66.0,29.54,North,-999,-999.0,-999.0,72,-99.99,,,-99.99,meteohub,2013-06-18 22:56:00,
2013-06-18 19:01:00,75.2,66.4,29.54,North,-999,-999.0,-999.0,74,-99.99,,,-99.99,meteohub,2013-06-18 23:01:00,
2013-06-18 19:06:00,74.3,65.8,29.54,North,-999,-999.0,-999.0,75,-99.99,,,-99.99,meteohub,2013-06-18 23:06:00,
2013-06-18 19:11:00,73.4,65.7,29.54,North,-999,-999.0,-999.0,77,-99.99,,,-99.99,meteohub,2013-06-18 23:11:00,
2013-06-18 19:16:00,72.9,65.7,29.54,North,-999,-999.0,-999.0,78,-99.99,,,-99.99,meteohub,2013-06-18 23:16:00,
2013-06-18 19:21:00,72.3,65.5,29.54,North,-999,-999.0,-999.0,79,-99.99,,,-99.99,meteohub,2013-06-18 23:21:00,
2013-06-18 19:26:00,72.1,65.7,29.54,North,-999,-999.0,-999.0,80,-99.99,,,-99.99,meteohub,2013-06-18 23:26:00,
2013-06-18 19:31:00,72.1,66.0,29.54,North,-999,-999.0,-999.0,81,-99.99,,,-99.99,meteohub,2013-06-18 23:31:00,
2013-06-18 19:36:00,72.0,65.8,29.54,North,-999,-999.0,-999.0,81,-99.99,,,-99.99,meteohub,2013-06-18 23:36:00,
2013-06-18 19:42:00,71.8,66.4,29.54,North,-999,-999.0,-999.0,83,-99.99,,,-99.99,meteohub,2013-06-18 23:42:00,
2013-06-18 19:47:00,71.6,66.2,29.54,North,-999,-999.0,-999.0,83,-99.99,,,-99.99,meteohub,2013-06-18 23:47:00,
2013-06-18 19:52:00,71.4,66.4,29.54,North,-999,-999.0,-999.0,84,-99.99,,,-99.99,meteohub,2013-06-18 23:52:00,
2013-06-18 19:57:00,71.2,66.6,29.54,North,-999,-999.0,-999.0,85,-99.99,,,-99.99,meteohub,2013-06-18 23:57:00,
2013-06-18 20:02:00,71.2,66.9,29.54,North,-999,-999.0,-999.0,86,-99.99,,,-99.99,meteohub,2013-06-19 00:02:00,
2013-06-18 20:07:00,71.2,67.1,29.54,North,-999,-999.0,-999.0,87,-99.99,,,-99.99,meteohub,2013-06-19 00:07:00,
2013-06-18 20:12:00,71.2,67.1,29.54,North,-999,-999.0,-999.0,87,-99.99,,,-99.99,meteohub,2013-06-19 00:12:00,
2013-06-18 20:17:00,71.2,67.1,29.54,North,-999,-999.0,-999.0,87,-99.99,,,-99.99,meteohub,2013-06-19 00:17:00,
2013-06-18 20:22:00,71.2,67.5,29.57,North,-999,-999.0,-999.0,88,-99.99,,,-99.99,meteohub,2013-06-19 00:22:00,
2013-06-18 20:27:00,71.2,67.5,29.57,North,-999,-999.0,-999.0,88,-99.99,,,-99.99,meteohub,2013-06-19 00:27:00,
2013-06-18 20:32:00,71.2,67.5,29.57,North,-999,-999.0,-999.0,88,-99.99,,,-99.99,meteohub,2013-06-19 00:32:00,
2013-06-18 20:37:00,71.1,67.3,29.57,North,-999,-999.0,-999.0,88,-99.99,,,-99.99,meteohub,2013-06-19 00:37:00,
2013-06-18 20:42:00,71.1,67.3,29.57,North,-999,-999.0,-999.0,88,-99.99,,,-99.99,meteohub,2013-06-19 00:42:00,
2013-06-18 20:47:00,71.1,67.3,29.57,North,-999,-999.0,-999.0,88,-99.99,,,-99.99,meteohub,2013-06-19 00:47:00,
2013-06-18 20:52:00,71.1,67.3,29.57,North,-999,-999.0,-999.0,88,-99.99,,,-99.99,meteohub,2013-06-19 00:52:00,
2013-06-18 20:57:00,70.9,67.5,29.57,North,-999,-999.0,-999.0,89,-99.99,,,-99.99,meteohub,2013-06-19 00:57:00,
2013-06-18 21:02:00,70.9,67.5,29.57,North,-999,-999.0,-999.0,89,-99.99,,,-99.99,meteohub,2013-06-19 01:02:00,
2013-06-18 21:07:00,70.9,67.5,29.57,North,-999,-999.0,-999.0,89,-99.99,,,-99.99,meteohub,2013-06-19 01:07:00,
2013-06-18 21:12:00,70.9,67.5,29.57,North,-999,-999.0,-999.0,89,-99.99,,,-99.99,meteohub,2013-06-19 01:12:00,
2013-06-18 21:17:00,70.9,67.5,29.57,North,-999,-999.0,-999.0,89,-99.99,,,-99.99,meteohub,2013-06-19 01:17:00,
2013-06-18 21:22:00,70.9,67.5,29.57,North,-999,-999.0,-999.0,89,-99.99,,,-99.99,meteohub,2013-06-19 01:22:00,
2013-06-18 21:27:00,70.9,67.5,29.57,North,-999,-999.0,-999.0,89,-99.99,,,-99.99,meteohub,2013-06-19 01:27:00,
2013-06-18 21:32:00,70.7,67.3,29.57,North,-999,-999.0,-999.0,89,-99.99,,,-99.99,meteohub,2013-06-19 01:32:00,
2013-06-18 21:37:00,70.7,67.6,29.57,North,-999,-999.0,-999.0,90,-99.99,,,-99.99,meteohub,2013-06-19 01:37:00,
2013-06-18 21:42:00,70.7,67.6,29.57,North,-999,-999.0,-999.0,90,-99.99,,,-99.99,meteohub,2013-06-19 01:42:00,
2013-06-18 21:47:00,70.7,67.6,29.57,North,-999,-999.0,-999.0,90,-99.99,,,-99.99,meteohub,2013-06-19 01:47:00,
2013-06-18 21:52:00,70.5,67.5,29.57,North,-999,-999.0,-999.0,90,-99.99,,,-99.99,meteohub,2013-06-19 01:52:00,
2013-06-18 21:57:00,70.5,67.5,29.57,North,-999,-999.0,-999.0,90,-99.99,,,-99.99,meteohub,2013-06-19 01:57:00,
2013-06-18 22:02:00,70.5,67.5,29.57,North,-999,-999.0,-999.0,90,-99.99,,,-99.99,meteohub,2013-06-19 02:02:00,
2013-06-18 22:07:00,70.5,67.5,29.57,North,-999,-999.0,-999.0,90,-99.99,,,-99.99,meteohub,2013-06-19 02:07:00,
2013-06-18 22:12:00,70.5,67.5,29.57,North,-999,-999.0,-999.0,90,-99.99,,,-99.99,meteohub,2013-06-19 02:12:00,
2013-06-18 22:17:00,70.5,67.8,29.57,North,-999,-999.0,-999.0,91,-99.99,,,-99.99,meteohub,2013-06-19 02:17:00,
2013-06-18 22:22:00,70.5,67.8,29.57,North,-999,-999.0,-999.0,91,-99.99,,,-99.99,meteohub,2013-06-19 02:22:00,
2013-06-18 22:27:00,70.5,67.8,29.57,North,-999,-999.0,-999.0,91,-99.99,,,-99.99,meteohub,2013-06-19 02:27:00,
2013-06-18 22:32:00,70.5,67.8,29.57,North,-999,-999.0,-999.0,91,-99.99,,,-99.99,meteohub,2013-06-19 02:32:00,
2013-06-18 22:37:00,70.5,67.8,29.57,North,-999,-999.0,-999.0,91,-99.99,,,-99.99,meteohub,2013-06-19 02:37:00,
2013-06-18 22:42:00,70.5,67.8,29.57,North,-999,-999.0,-999.0,91,-99.99,,,-99.99,meteohub,2013-06-19 02:42:00,
2013-06-18 22:47:00,70.5,67.8,29.57,North,-999,-999.0,-999.0,91,-99.99,,,-99.99,meteohub,2013-06-19 02:47:00,
2013-06-18 22:52:00,70.7,68.0,29.57,North,-999,-999.0,-999.0,91,-99.99,,,-99.99,meteohub,2013-06-19 02:52:00,
2013-06-18 22:57:00,70.7,68.0,29.57,North,-999,-999.0,-999.0,91,-99.99,,,-99.99,meteohub,2013-06-19 02:57:00,
2013-06-18 23:02:00,70.5,67.8,29.57,North,-999,-999.0,-999.0,91,-99.99,,,-99.99,meteohub,2013-06-19 03:02:00,
2013-06-18 23:07:00,70.5,67.8,29.57,North,-999,-999.0,-999.0,91,-99.99,,,-99.99,meteohub,2013-06-19 03:07:00,
2013-06-18 23:12:00,70.5,67.8,29.57,North,-999,-999.0,-999.0,91,-99.99,,,-99.99,meteohub,2013-06-19 03:12:00,
2013-06-18 23:17:00,70.5,67.8,29.57,North,-999,-999.0,-999.0,91,-99.99,,,-99.99,meteohub,2013-06-19 03:17:00,
2013-06-18 23:22:00,70.5,67.8,29.57,North,-999,-999.0,-999.0,91,-99.99,,,-99.99,meteohub,2013-06-19 03:22:00,
2013-06-18 23:27:00,70.5,67.8,29.57,North,-999,-999.0,-999.0,91,-99.99,,,-99.99,meteohub,2013-06-19 03:27:00,
2013-06-18 23:32:00,70.5,67.8,29.57,North,-999,-999.0,-999.0,91,-99.99,,,-99.99,meteohub,2013-06-19 03:32:00,
2013-06-18 23:37:00,70.5,67.8,29.57,North,-999,-999.0,-999.0,91,-99.99,,,-99.99,meteohub,2013-06-19 03:37:00,
2013-06-18 23:42:00,70.5,68.0,29.57,North,-999,-999.0,-999.0,92,-99.99,,,-99.99,meteohub,2013-06-19 03:42:00,
2013-06-18 23:47:00,70.5,68.0,29.57,North,-999,-999.0,-999.0,92,-99.99,,,-99.99,meteohub,2013-06-19 03:47:00,
2013-06-18 23:52:00,70.5,68.0,29.57,North,-999,-999.0,-999.0,92,-99.99,,,-99.99,meteohub,2013-06-19 03:52:00,
2013-06-18 23:57:00,70.5,68.0,29.57,North,-999,-999.0,-999.0,92,-99.99,,,-99.99,meteohub,2013-06-19 03:57:00,